Theta_e
321 322 322 323 323 324 325 325 326 327 327 327 327 327 326 325 324 322 313 318 323 328 323 315 314 314 313 311 310 306 296 294 295 296 299 302 300 301 302 300 302 303 300 301 304
321 321 322 322 322 323 324 325 326 326 327 327 327 327 325 324 319 314 321 329 330 330 315 311 309 310 306 308 307 301 297 297 301 300 299 301 300 302 299 300 298 299 302 303 304
321 321 321 322 322 323 324 325 326 326 327 327 327 327 325 321 314 311 325 328 331 323 315 313 311 308 304 305 303 301 296 298 301 303 303 302 299 301 298 297 300 300 300 302 302
322 322 321 321 322 322 323 324 325 326 326 327 326 325 323 319 303 316 327 329 329 317 314 313 308 303 301 300 305 298 300 301 304 304 302 300 302 299 300 298 303 302 302 302 301
322 322 322 321 322 322 323 324 325 326 326 324 325 324 319 311 312 320 324 326 320 315 311 309 304 303 299 301 302 299 301 302 304 302 301 303 300 300 299 301 301 302 302 300 299
322 321 321 321 321 322 323 323 325 323 324 323 323 321 316 306 318 318 315 317 315 312 309 308 305 306 302 301 299 302 302 301 302 302 301 299 299 299 300 300 299 300 299 298 298
321 321 321 321 321 322 322 322 322 321 322 323 324 318 312 311 320 315 314 312 313 312 309 310 309 305 304 301 303 301 296 299 300 300 299 300 296 297 301 300 299 298 297 297 297
321 321 320 320 321 322 322 322 320 321 322 323 324 316 308 315 320 316 314 311 313 312 311 311 310 308 304 303 301 296 295 292 299 300 298 297 292 300 300 298 297 297 296 296 296
319 319 320 320 320 320 321 321 321 323 321 321 317 313 306 317 312 316 314 310 310 310 310 310 310 304 302 295 293 295 289 293 295 300 297 295 294 297 299 298 297 296 296 296 295
319 318 319 320 320 320 320 321 322 322 319 317 314 307 307 306 311 313 313 312 308 307 306 305 302 297 296 294 288 291 290 294 293 296 296 294 293 297 298 298 297 297 296 296 295
318 318 319 319 319 320 319 318 313 310 313 307 308 308 306 306 311 309 311 308 307 304 297 301 295 292 295 297 298 296 293 292 295 296 294 294 295 298 297 296 296 297 296 296 295
319 318 319 319 320 320 319 312 311 310 303 312 311 310 308 307 301 306 309 302 301 296 300 295 292 299 301 300 297 295 292 292 296 296 293 293 293 297 298 297 298 298 297 296 293
318 318 318 319 319 318 315 313 315 313 304 304 311 309 306 305 302 302 305 303 299 297 297 294 297 300 299 295 295 293 292 292 293 294 292 290 289 293 298 300 299 299 298 298 293
319 318 318 318 314 315 311 318 320 315 295 296 304 308 304 305 300 306 306 302 299 296 297 296 300 296 295 295 295 291 296 296 294 289 285 291 283 292 296 297 299 296 295 294 293
318 318 318 319 313 310 313 318 320 314 280 300 301 309 305 302 300 299 304 300 296 295 297 294 293 293 293 295 297 293 296 293 292 290 288 288 286 290 296 295 296 294 294 294 293
318 317 317 316 315 315 318 318 316 294 282 296 298 298 297 300 298 298 298 300 300 296 294 294 296 295 295 294 295 296 293 291 290 289 281 289 288 288 293 296 296 295 295 294 292
317 317 315 316 307 318 318 312 292 285 295 292 294 297 297 296 295 295 293 291 291 288 288 292 293 295 296 291 293 293 290 283 280 279 280 287 287 291 294 293 295 295 294 294 292
317 317 315 316 316 317 314 297 282 289 290 298 297 296 294 296 295 293 291 289 293 293 291 288 286 293 295 295 291 290 291 284 279 279 281 283 281 288 293 293 293 296 295 293 291
317 315 314 315 317 314 304 286 286 290 295 294 295 292 292 295 294 292 292 292 294 294 290 291 291 296 295 296 296 290 287 294 285 277 278 285 287 292 290 289 290 292 292 291 291
313 311 310 317 318 310 299 288 291 297 298 296 290 294 290 292 290 290 290 295 295 297 298 296 289 293 291 293 294 291 294 284 284 274 275 283 286 287 287 289 289 291 291 291 291
310 304 312 317 315 303 289 289 294 300 300 295 293 292 293 293 291 289 292 295 298 297 298 296 292 286 290 288 289 288 287 289 289 285 279 278 284 292 293 292 289 291 292 291 290
307 298 313 315 300 299 294 296 298 298 302 300 298 297 296 295 292 291 291 296 300 299 293 296 294 283 286 290 292 291 290 290 283 282 285 282 286 292 293 294 293 292 292 292 291
301 301 314 312 294 294 297 296 298 297 297 298 298 298 299 296 292 293 294 299 300 298 294 296 290 285 285 287 288 287 290 292 292 287 285 281 285 291 291 292 293 291 292 292 291
301 295 301 306 304 298 293 293 294 300 298 300 299 300 297 296 298 294 294 297 298 298 299 299 292 290 286 288 291 284 287 290 290 284 284 287 289 286 289 289 291 292 293 292 292
301 296 298 293 297 298 298 295 293 293 298 300 297 297 296 292 294 294 295 293 294 297 297 296 288 291 293 294 292 288 287 288 287 288 286 289 289 293 292 290 292 293 292 292 291
293 292 295 293 295 294 298 294 294 295 297 294 295 297 298 294 295 293 296 294 291 292 291 293 287 290 288 291 291 289 292 289 289 289 290 290 290 295 296 294 291 293 292 291 291
296 297 295 293 293 291 289 292 295 298 299 300 298 297 296 298 301 302 301 299 297 291 289 289 288 286 285 288 287 285 289 291 291 291 291 286 292 295 295 292 292 292 293 292 292
Wind_Speed
1 3 3 4 4 5 5 6 7 9 10 11 11 10 10 12 12 4 1 3 4 6 6 6 4 2 5 2 2 2 2 3 1 1 5 7 5 1 1 4 5 5 5 6 5
3 2 3 3 4 4 6 6 7 9 10 11 12 12 11 11 3 5 1 3 4 1 4 4 2 1 2 1 1 1 2 6 7 7 4 7 5 9 3 6 5 6 7 6 5
5 4 3 4 5 5 5 7 8 9 11 12 12 13 11 9 4 4 4 3 1 3 5 5 6 3 3 2 2 1 2 4 6 8 9 7 1 2 3 4 4 9 10 7 8
6 6 5 5 5 6 6 7 8 9 12 12 13 14 14 4 3 3 2 1 2 6 5 2 5 3 2 2 3 4 2 5 4 3 3 3 2 1 6 4 8 10 11 8 9
6 7 7 6 6 6 6 7 9 10 12 13 12 12 6 4 2 4 2 2 4 2 3 3 5 3 4 2 1 4 3 2 5 2 2 4 3 5 3 9 10 8 9 9 8
6 6 7 7 7 7 7 8 9 12 12 12 12 13 3 5 3 3 4 2 4 4 2 3 5 6 5 2 1 5 4 4 6 5 3 2 5 3 5 12 10 8 9 8 8
8 7 7 8 8 7 7 7 9 11 11 9 11 5 4 4 1 5 2 2 3 4 1 3 5 3 5 2 3 2 4 7 9 6 1 3 7 11 7 9 10 8 9 8 7
9 8 7 7 8 8 7 6 9 11 10 8 9 4 5 1 3 2 4 4 2 1 3 3 3 2 3 2 3 3 3 3 4 10 4 4 7 8 12 10 9 9 9 8 6
10 9 8 7 7 7 7 7 9 10 8 10 5 3 4 2 3 5 3 4 5 4 3 1 2 1 1 3 4 5 5 7 5 8 6 7 5 4 6 8 8 9 9 8 7
11 9 8 7 6 7 8 8 8 8 6 4 3 3 6 2 4 3 1 3 3 6 4 4 3 3 3 5 6 6 5 6 5 7 5 7 12 6 9 9 10 10 10 9 9
13 11 9 7 6 6 7 5 3 4 5 8 6 2 4 4 1 5 3 5 4 4 6 6 4 8 12 11 10 9 6 8 6 4 4 9 10 11 12 9 10 10 11 10 9
16 14 11 8 6 6 4 5 3 2 7 13 11 6 5 5 4 6 3 7 6 7 8 3 10 13 9 6 6 9 7 10 7 8 2 7 12 10 7 15 17 15 11 12 10
18 16 13 10 7 4 8 5 1 3 5 7 13 8 7 8 7 13 8 5 6 8 10 11 3 3 11 3 4 6 7 7 7 4 4 5 9 14 13 16 15 11 7 12 16
19 18 15 12 5 7 8 9 3 2 5 8 8 7 8 6 7 3 13 4 6 12 9 10 12 3 6 7 8 8 4 11 5 3 4 7 7 8 9 13 16 11 9 11 13
22 21 19 21 3 9 5 8 5 2 7 2 8 3 7 11 10 0 4 2 9 8 7 5 7 9 7 6 8 4 6 3 2 5 4 4 8 8 16 17 12 11 11 10 11
23 22 21 13 7 6 4 9 2 4 15 4 5 6 7 6 4 4 2 2 2 5 3 2 2 3 4 5 3 9 5 2 1 1 6 14 13 6 13 15 8 10 11 11 12
25 24 21 12 12 6 8 7 4 9 4 11 7 9 10 9 7 6 10 9 10 7 10 7 9 4 4 6 4 4 6 2 3 1 9 2 10 15 5 2 3 15 14 11 12
25 26 22 13 9 11 10 12 9 22 30 6 7 7 9 8 6 7 9 9 16 10 3 12 6 17 10 13 8 11 9 7 7 5 4 4 8 8 3 6 4 11 13 12 13
20 13 10 14 14 8 10 13 18 19 15 16 8 6 8 6 6 8 10 10 12 20 14 8 7 6 5 4 10 6 8 9 4 2 2 7 8 6 5 4 1 10 14 14 14
6 9 13 19 15 11 16 17 18 23 10 25 29 15 13 13 9 12 14 8 13 22 12 4 3 2 4 4 3 5 6 4 1 3 7 6 12 10 6 11 9 12 17 16 15
6 7 8 20 15 13 18 13 20 13 18 16 24 15 23 12 16 12 11 5 18 16 21 3 0 1 6 9 14 5 4 5 4 5 5 5 9 4 15 16 19 16 16 17 17
3 7 10 19 16 8 15 30 15 14 16 14 17 21 18 21 15 18 16 9 15 16 19 9 3 6 10 2 1 3 8 11 6 7 9 3 21 2 4 12 15 17 15 15 16
5 3 8 18 16 14 13 25 21 15 24 16 14 17 18 18 19 22 11 8 13 19 20 13 6 1 3 2 3 7 8 16 14 1 20 6 12 3 7 6 9 13 14 15 16
4 6 7 9 9 21 17 20 23 20 23 20 22 13 6 12 21 9 16 6 17 16 10 15 7 15 20 7 8 8 11 19 18 13 5 28 17 2 5 5 7 11 15 15 17
5 5 5 5 12 21 25 17 28 22 23 18 16 23 23 16 19 29 9 2 3 8 9 13 8 9 20 18 7 8 12 21 26 27 17 25 25 19 12 14 17 10 12 15 16
4 2 2 2 3 4 20 27 28 28 18 24 25 30 24 30 32 29 19 13 9 5 8 2 9 13 23 17 9 15 18 20 24 24 28 31 37 5 11 13 10 15 16 17 18
2 2 2 2 9 11 4 5 12 22 20 28 32 25 26 36 27 19 9 3 5 13 9 8 5 5 23 8 8 11 40 21 25 25 25 28 37 12 14 14 16 17 17 18 16
Wind_Direction
29 9 10 5 8 5 9 7 357 350 345 345 345 341 338 336 308 221 352 355 346 334 324 288 257 271 255 134 272 276 307 248 219 250 122 124 157 30 53 125 63 38 63 103 136
305 327 331 342 343 350 351 353 349 345 342 341 339 338 336 340 300 276 11 22 352 314 260 256 246 199 199 168 254 268 302 359 1 44 89 154 221 147 177 161 124 104 100 118 106
285 290 305 319 322 333 342 342 339 344 341 335 335 333 327 320 270 67 3 25 63 292 278 308 298 286 272 346 120 27 301 4 40 37 356 117 299 46 228 219 56 168 133 121 103
274 283 291 302 313 323 333 333 337 340 338 334 333 328 319 252 341 82 15 54 244 297 264 223 252 243 277 216 78 297 67 14 46 57 357 109 33 190 233 101 70 78 116 123 97
271 280 287 295 303 311 321 327 336 340 338 335 334 332 325 258 69 133 189 134 250 247 265 292 288 335 267 56 22 234 119 63 83 118 287 35 276 249 300 124 101 98 106 109 105
241 262 279 286 291 300 312 325 341 340 340 339 341 323 265 268 134 99 96 127 295 256 160 275 357 3 299 344 273 8 354 252 161 213 206 235 264 227 239 137 127 149 128 114 113
233 235 262 277 286 293 307 325 334 333 330 333 340 319 265 272 50 123 157 40 2 324 277 48 338 286 6 189 83 342 293 230 221 204 291 140 277 234 152 143 150 175 138 131 137
236 232 247 266 284 295 305 319 317 316 311 309 315 288 269 28 29 184 164 123 130 90 15 29 279 355 340 116 217 239 200 252 356 144 149 169 274 357 135 152 177 179 152 151 146
228 238 237 255 271 288 297 295 288 291 287 292 271 247 259 188 189 137 257 155 112 110 47 186 259 292 125 223 252 195 254 216 158 182 128 190 275 144 154 181 184 182 165 170 155
211 224 237 245 263 279 283 273 291 297 240 244 261 301 167 149 109 156 120 175 144 147 132 197 209 205 211 197 215 216 219 247 244 196 191 198 259 213 191 192 196 183 176 175 171
198 207 216 233 251 264 292 251 239 207 231 205 172 217 132 83 242 209 182 148 158 217 189 202 208 207 210 217 249 294 313 295 304 136 185 225 244 248 190 200 214 196 179 177 168
194 198 198 203 228 243 268 248 88 333 295 227 254 251 131 190 137 174 209 179 187 200 211 109 233 236 237 239 251 235 254 264 284 129 164 274 266 257 227 209 205 206 192 168 136
192 192 186 181 202 213 236 233 83 308 262 240 201 199 176 163 209 175 184 207 187 210 204 209 181 219 226 202 215 240 234 254 244 153 220 303 276 252 244 232 206 212 187 163 154
195 186 177 158 189 204 220 241 164 296 269 227 191 230 133 181 227 163 194 166 191 215 221 231 246 196 178 214 187 248 235 227 255 323 244 138 280 279 286 239 220 187 158 144 147
194 186 175 172 180 191 172 167 180 271 281 339 116 345 148 178 132 169 22 85 195 188 182 213 167 169 195 183 185 207 54 29 244 248 303 260 269 255 225 248 217 174 174 157 151
198 186 183 195 253 196 171 128 133 197 239 154 119 144 148 233 73 97 133 311 333 231 243 264 339 194 189 55 1 127 90 101 61 183 257 222 221 207 239 229 206 180 170 156 148
198 188 187 187 205 196 142 124 148 233 186 196 161 167 196 171 147 171 179 186 177 170 207 204 202 172 149 98 12 173 139 253 300 211 236 323 217 243 267 288 220 174 166 161 149
205 190 194 200 187 161 179 142 196 229 231 86 115 141 187 141 183 196 170 199 228 237 179 195 218 174 183 202 167 194 179 167 225 209 260 343 236 252 14 77 43 150 155 146 154
211 206 204 194 180 166 191 186 194 210 208 217 135 171 193 167 140 164 214 225 203 205 199 194 229 106 141 173 141 175 218 245 11 44 2 216 260 275 153 143 193 151 153 165 168
216 215 210 180 172 190 193 214 230 213 276 200 219 186 177 175 184 189 185 210 221 192 216 272 221 171 70 61 316 175 153 94 213 233 252 245 242 238 219 213 185 186 176 174 174
237 221 184 175 181 201 198 224 233 232 215 224 223 228 220 181 183 195 222 230 193 176 190 188 170 119 126 211 177 134 207 213 165 187 222 275 256 231 195 191 191 196 185 181 180
240 234 165 163 215 197 211 212 207 223 228 241 240 241 227 212 192 202 214 214 177 154 187 183 134 173 211 71 171 207 177 185 170 223 235 171 255 278 19 180 179 186 185 181 185
215 254 187 177 200 208 218 229 224 204 231 231 236 232 236 218 238 209 204 215 174 169 169 168 180 174 220 335 339 203 204 210 224 99 232 193 253 344 10 90 166 170 181 182 180
246 220 205 222 214 206 200 220 221 218 242 230 239 241 226 238 237 231 218 196 173 180 179 166 160 193 224 214 144 190 198 207 207 228 194 235 249 161 214 212 183 187 182 178 181
238 215 179 202 232 211 204 212 221 221 212 212 233 232 217 228 227 240 194 103 40 169 171 177 210 211 243 247 203 175 199 207 212 224 211 251 240 234 212 202 209 186 167 176 182
274 230 285 217 160 347 222 211 216 217 200 213 222 219 221 222 221 224 215 193 181 186 165 173 229 227 255 242 232 252 247 212 216 230 240 250 255 185 219 200 176 184 180 186 187
177 257 261 278 228 230 202 319 240 236 222 224 217 227 216 222 229 242 246 223 201 157 168 144 200 183 247 196 248 262 238 230 227 222 220 237 249 208 236 196 191 189 185 188 189